Location: Nairn
(57.5833°N, 3.8667°W)
Time: 21:32:33
(UTC+00:00)

Altair - Pass Details

Date: 12 October 2022
Orbit: 1501 x 1682 km, 47.2° (Epoch: 05 December)

Event Time Altitude Azimuth Distance (km) Brightness Sun altitude
Exits shadow 04:56:11 15° 236° (SW) 3,395 8.8 -15.0°
Maximum altitude 05:03:47 45° 171° (S) 2,101 8.2 -14.0°
Drops below altitude 10° 05:13:04 10° 104° (ESE) 3,919 10.8 -12.8°
Sets 05:16:25 0° 98° (E) 4,921 11.9 -12.3°
